Location: Aldenham
(51.6667°N, 0.3500°W)
Time: 20:35:43
(UTC+00:00)

Vanguard 2 Rocket - Pass Details

Date: 22 February 2026
Orbit: 553 x 3286 km, 32.9° (Epoch: 8 March)

Event Time Altitude Azimuth Distance (km) Brightness Sun altitude
Rises 13:35:26 0° 251° (WSW) 7,255 12.1 25.9°
Reaches altitude 10° 13:41:02 10° 244° (WSW) 6,140 12.0 25.5°
Maximum altitude 13:56:54 37° 188° (S) 3,602 11.6 24.5°
Drops below altitude 10° 14:08:01 10° 127° (SE) 4,325 10.5 23.6°
Sets 14:11:11 0° 119° (ESE) 4,975 10.7 23.4°
